Flag for Germany Weather past 2 weeks in Jena, Thuringia, Germany

Now
73 °F

Passing clouds.


Feels Like: 77 °F
Forecast: 53 / 72 °F
Wind: 13 mph from East

Location: Erfurt-Bindersleben

Current Time: Sep 16, 2014 at 4:38:36 PM

Latest Report: Sep 16, 2014 at 4:20 PM


Visibility: N/A

Pressure: 30.04 "Hg

Humidity: 50%

Dew point: 54 °F

Location of JenaLocation

Historic Weather in Jena — Graph

°F

Jena temperature yesterday

Maximum temperature yesterday: 68 °F (at 3:50 PM)
Minimum temperature yesterday: 57 °F (at 12:20 AM)
Average temperature yesterday: 62 °F

Past Weeks' High & Low Weather Summary

 TemperatureHumidityPressure
High75 °F (Sep 5, 4:20 PM)100% (Sep 2, 8:20 AM)30.24 "Hg (Sep 2, 8:20 AM)
Low50 °F (Sep 3, 2:50 AM)52% (Sep 9, 3:20 PM)29.89 "Hg (Sep 6, 3:50 PM)
Average59 °F89%30.07 "Hg
* Reported Sep 1 3:20 PM — Sep 16 3:20 PM, Jena, Weather by CustomWeather, © 2014

Note: Actual official high and low records may vary slightly from our data, if they occured in-between our weather recording intervals... More about our weather records

Advertising

Jena weather history for previous 24 hours

 ConditionsComfort  
Time TempWeatherWind HumidityBarometerVisibility
3:20 PM
Sep 16
72 °FPassing clouds.14 mph61%30.04 "HgN/A
2:50 PM73 °FPassing clouds.14 mph53%30.04 "HgN/A
2:20 PM72 °FPassing clouds.10 mph57%30.04 "HgN/A
1:50 PM72 °FPassing clouds.10 mph61%30.04 "HgN/A
1:20 PM72 °FPassing clouds.10 mph57%30.07 "HgN/A
12:50 PM68 °FPassing clouds.7 mph83%30.04 "HgN/A
12:20 PM66 °FPassing clouds.6 mph83%30.07 "HgN/A
11:50 AM66 °FPassing clouds.7 mph83%30.07 "Hg4 mi
11:20 AM64 °FPassing clouds.6 mph83%30.07 "Hg3 mi
10:50 AM64 °FFog.6 mph83%30.07 "Hg3 mi
10:20 AM63 °FFog.5 mph88%30.07 "Hg3 mi
9:50 AM61 °FFog.3 mph94%30.07 "Hg3 mi
9:20 AM59 °FFog.3 mph100%30.07 "Hg1 mi
8:50 AM59 °FFog.3 mph100%30.07 "Hg1 mi
8:20 AM59 °FFog.3 mph100%30.07 "Hg1 mi
7:50 AM59 °FFog.5 mph100%30.07 "Hg1 mi
7:20 AM59 °FFog.2 mph100%30.07 "Hg1 mi
6:50 AM59 °FFog.3 mph100%30.07 "Hg1 mi
6:20 AM59 °FFog.3 mph100%30.04 "Hg1 mi
5:50 AM59 °FFog.3 mph100%30.04 "Hg1 mi
5:20 AM59 °FCool.2 mph100%30.04 "Hg1 mi
4:50 AM59 °FFog.3 mph100%30.07 "Hg0 mi
4:20 AM59 °FFog.3 mph100%30.04 "Hg0 mi
3:50 AM61 °FFog.5 mph94%30.07 "Hg1 mi
3:20 AM61 °FFog.2 mph94%30.07 "Hg1 mi
2:50 AM61 °FFog.3 mph94%30.07 "Hg1 mi
2:20 AM61 °FFog.2 mph94%30.07 "Hg1 mi
1:50 AM61 °FFog.3 mph100%30.07 "Hg1 mi
1:20 AM61 °FFog.2 mph100%30.07 "Hg1 mi
12:50 AM61 °FCool.1 mph94%30.07 "Hg2 mi
12:20 AM61 °FCool.1 mph94%30.07 "Hg2 mi
11:50 PM
Sep 15
61 °FCool.1 mph94%30.07 "Hg2 mi
11:20 PM61 °FFog.1 mph94%30.07 "Hg2 mi
10:50 PM59 °FFog.2 mph94%30.07 "Hg2 mi
10:20 PM61 °FFog.2 mph94%30.07 "Hg2 mi
9:50 PM61 °FFog.5 mph94%30.07 "Hg3 mi
9:20 PM63 °FFog.8 mph88%30.07 "Hg3 mi
8:50 PM63 °FFog.8 mph88%30.07 "Hg3 mi
8:20 PM63 °FClear.7 mph88%30.07 "Hg4 mi
7:50 PM64 °FScattered clouds.7 mph83%30.07 "HgN/A
7:20 PM64 °FSunny.8 mph83%30.04 "Hg10 mi
6:50 PM66 °FScattered clouds.9 mph78%30.04 "HgN/A
6:20 PM66 °FScattered clouds.10 mph78%30.04 "HgN/A
5:50 PM68 °FScattered clouds.12 mph73%30.04 "HgN/A
5:20 PM68 °FPassing clouds.8 mph73%30.04 "HgN/A
4:50 PM66 °FPassing clouds.9 mph73%30.07 "HgN/A
4:20 PM68 °FScattered clouds.8 mph73%30.07 "HgN/A
Weather by CustomWeather, © 2014

See weather overviewHow to use our weather pages